Torna al catalogo

COSMOS 2530

AttivoNavigazionePO
NORAD 43751·PAYLOAD·🇷🇺 Russia

Lanciato Nov 30, 2018 da Plesetsk Cosmodrome

Loading…

Prossimi Passaggi (prossime 24 ore)

TLE

AggiornatoSource: Space-Track

Epoca: Sep 14, 2026, 13:37 UTC

1 43751U 18097A   26257.56780113  .00000066  00000-0  40686-3 0  9997
2 43751  82.5193 166.8242 0018450 198.4218 161.6196 12.42883233353399

Traccia COSMOS 2530 in tempo reale con AllMySat

Download on the App Store